Regional Weather Roundup
Issued by NWS

Home | Current Version | Previous Version | Graphics & Text | Print | Product List | Glossary On
Versions: 1 2 3 4 5 6 7 8 9 10 11 12 13 14 15 16 17 18 19 20 21 22 23 24 25 26 27 28 29 30 31 32 33 34 35 36 37 38 39 40 41 42 43 44 45 46 47 48 49 50
000
ASUS45 KCYS 281010
RWRWY

WYOMING REGIONAL WEATHER ROUNDUP
NATIONAL WEATHER SERVICE CHEYENNE WY
400 AM MDT SAT MAR 28 2015

NOTE:  "FAIR" INDICATES FEW OR NO CLOUDS BELOW 12,000 FEET
WITH NO SIGNIFICANT WEATHER AND/OR OBSTRUCTIONS TO VISIBILITY.

WYZ001-281100-
YELLOWSTONE NATIONAL PARK

CITY           SKY/WX    TMP DP  RH WIND       PRES   REMARKS
LK YELLOWSTONE   N/A     26  23  88 NW3       30.18F
W YELLOWSTONE  NOT AVBL

$$
WYZ002>013-054>058-071-098>099-281100-
NORTHERN WYOMING

CITY           SKY/WX    TMP DP  RH WIND       PRES   REMARKS
JACKSON        FAIR      30  28  93 N9        30.16F WCI  22
CODY           FAIR      57  30  35 SW14      29.98F
GREYBULL       FAIR      45  29  53 CALM      29.97F
WORLAND        FAIR      40  29  64 CALM      29.98F
SHERIDAN       FAIR      44  30  57 VRB5      29.90F
BUFFALO        FAIR      56  27  32 CALM      29.95F
GILLETTE       FAIR      47  29  49 CALM      29.93F
HULETT         FAIR      37  32  81 S7        29.93F WCI  32
NEWCASTLE      FAIR      37  28  70 N5        29.97S WCI  34

$$
WYZ014>020-022>026-101>103-281100-
CENTRAL WYOMING

CITY           SKY/WX    TMP DP  RH WIND       PRES   REMARKS
BIG PINEY      FAIR      25  21  85 E5        30.20F WCI  19
PINEDALE       FAIR      28  27  93 NW6       30.21F WCI  22
DUBOIS         FAIR      37  28  70 NW14      30.12F WCI  29
LANDER         FAIR      41  23  48 S6        30.05F
RIVERTON       FAIR      48  29  47 W13       30.06F
CASPER         FAIR      40  26  57 W5        30.04F
DOUGLAS        FAIR      39  27  62 NW8       30.02F WCI  33

$$
WYZ021-027>030-104>119-281100-
SOUTHERN WYOMING

CITY           SKY/WX    TMP DP  RH WIND       PRES   REMARKS
EVANSTON       FAIR      40  25  55 S9        30.21F WCI  34
KEMMERER       FAIR      34  28  80 NW6       30.21F WCI  29
FORT BRIDGER   FAIR      47  24  40 SW10      30.24
ROCK SPRINGS   FAIR      40  27  59 SW10      30.19F WCI  33
DIXON          FAIR      33  26  75 SE3       30.23F
RAWLINS        FAIR      45  22  40 W17       30.15F
SARATOGA       FAIR      32  23  69 SE7       30.18F WCI  26
LARAMIE        FAIR      34  22  61 W12       30.14F WCI  25
CHEYENNE       FAIR      46  24  42 W15       30.08F
TORRINGTON     FAIR      39  25  57 NW6       29.99S WCI  35
PINE BLUFFS    FAIR      34  27  75 W3        30.05S

$$



USA.gov is the U.S. government's official web portal to all federal, state and local government web resources and services.